GW1572 Weather Reports


time (UTC)temp
C
wind
direction
speed
KPH
gust
KPH
rain 1hr
cm
rain 24hr
cm
rain mn
cm
humidity
%
barometer
mb
20260906023107 22 128 0.0 0.0 0.00 0.00 0.23 99 1004.7
20260906022636 22 117 0.0 0.0 0.00 0.00 0.23 99 1004.7
20260906022204 23 117 0.0 0.0 0.00 0.00 0.23 99 1004.7
20260906021733 23 66 1.6 1.6 0.00 0.00 0.23 99 1004.7
20260906021316 23 44 1.6 1.6 0.00 0.00 0.23 99 1004.7
20260906020357 23 80 0.0 1.6 0.00 0.00 0.23 99 1004.4
20260906015941 23 130 0.0 0.0 0.00 0.00 0.23 99 1004.4
20260906015509 23 136 0.0 0.0 0.00 0.00 0.23 99 1004.4
20260906014621 23 107 0.0 0.0 0.00 0.00 0.23 99 1004.4
20260906014149 23 135 0.0 0.0 0.00 0.00 0.23 99 1004.4
20260906013733 23 140 0.0 0.0 0.00 0.00 0.23 99 1004.0
20260906013259 23 135 0.0 0.0 0.00 0.00 0.23 99 1004.0
20260906012842 23 117 0.0 0.0 0.00 0.00 0.23 98 1003.7
20260906012411 23 141 0.0 0.0 0.00 0.00 0.23 98 1003.7
20260906011939 23 141 0.0 0.0 0.00 0.00 0.23 98 1003.7
20260906011036 23 141 0.0 0.0 0.00 0.00 0.23 98 1003.3
20260906010133 23 140 0.0 0.0 0.00 0.00 0.23 97 1003.3
20260906005716 23 140 0.0 0.0 0.00 0.00 0.23 97 1003.7
20260906005244 23 140 0.0 0.0 0.00 0.00 0.23 97 1003.3
20260906004813 23 140 0.0 0.0 0.00 0.00 0.23 97 1003.7
20260906004340 23 136 0.0 0.0 0.00 0.00 0.23 97 1003.3
20260906003923 24 136 0.0 0.0 0.00 0.00 0.23 97 1003.3
20260906003506 24 134 0.0 0.0 0.00 0.00 0.23 96 1003.3
20260906002602 24 130 0.0 0.0 0.00 0.00 0.23 96 1003.3
20260906002147 24 124 0.0 0.0 0.00 0.00 0.23 96 1003.3
20260906001729 24 140 0.0 0.0 0.00 0.00 0.23 95 1003.3
20260906001257 24 132 0.0 0.0 0.00 0.00 0.23 95 1003.7
20260906000841 25 142 0.0 0.0 0.00 0.00 0.23 94 1003.7
20260906000411 25 130 0.0 0.0 0.00 0.00 0.23 93 1003.3
20260905235952 25 130 0.0 0.0 0.00 0.00 0.23 93 1003.3
20260905235536 25 143 0.0 0.0 0.00 0.00 0.23 92 1003.7
20260905235047 25 140 0.0 0.0 0.00 0.00 0.23 91 1003.7
20260905234631 26 135 0.0 0.0 0.00 0.00 0.23 91 1003.7
20260905234216 26 145 0.0 0.0 0.00 0.00 0.23 90 1003.7
20260905233801 26 141 0.0 0.0 0.00 0.00 0.23 88 1004.0
20260905233345 27 136 0.0 0.0 0.00 0.00 0.23 87 1003.7
20260905231547 29 140 0.0 0.0 0.00 0.00 0.23 81 1003.7
20260905231119 29 138 0.0 0.0 0.00 0.00 0.23 82 1003.7
20260905230219 28 136 0.0 0.0 0.00 0.00 0.23 84 1004.0
20260905225747 28 142 0.0 0.0 0.00 0.00 0.23 84 1003.7
20260905225317 28 141 0.0 0.0 0.00 0.00 0.23 83 1003.7
20260905224846 29 135 0.0 0.0 0.00 0.00 0.23 83 1004.0
20260905224429 29 138 0.0 0.0 0.00 0.00 0.23 81 1003.7
20260905224010 30 144 0.0 0.0 0.00 0.00 0.23 80 1004.0
20260905223539 30 130 0.0 0.0 0.00 0.00 0.23 78 1003.7
20260905223125 30 146 0.0 0.0 0.00 0.00 0.23 78 1003.7
20260905222710 30 144 0.0 0.0 0.00 0.00 0.23 79 1004.0
20260905222255 29 140 0.0 0.0 0.00 0.00 0.23 80 1004.0
20260905221839 29 146 0.0 1.6 0.00 0.00 0.23 80 1003.7
20260905220938 30 138 0.0 0.0 0.00 0.00 0.23 76 1003.7
20260905220520 30 156 0.0 1.6 0.00 0.00 0.23 76 1003.7
20260905220046 29 210 6.4 6.4 0.00 0.00 0.23 75 1004.0
20260905215630 30 212 6.4 6.4 0.00 0.00 0.23 73 1003.7
20260905215159 30 203 1.6 1.6 0.00 0.00 0.23 74 1004.0
20260905214312 29 208 3.2 3.2 0.00 0.00 0.23 75 1003.7
20260905212943 30 181 1.6 1.6 0.00 0.00 0.23 74 1003.7
20260905212044 30 198 4.8 4.8 0.00 0.00 0.23 72 1003.3
20260905211614 29 210 3.2 3.2 0.00 0.00 0.23 74 1003.3
20260905211158 30 255 3.2 4.8 0.00 0.00 0.23 75 1003.3
20260905210743 29 180 1.6 1.6 0.00 0.00 0.23 74 1003.3
20260905204925 30 234 6.4 11.3 0.00 0.00 0.23 72 1003.3
20260905204510 30 198 1.6 1.6 0.00 0.00 0.23 71 1003.3
20260905204053 30 222 3.2 4.8 0.00 0.00 0.23 73 1003.3
20260905203637 31 195 1.6 3.2 0.00 0.00 0.23 71 1003.3
20260905203223 30 168 0.0 0.0 0.00 0.00 0.23 70 1003.7
20260905202807 30 223 3.2 3.2 0.00 0.00 0.23 70 1003.7
20260905202353 30 183 3.2 4.8 0.00 0.00 0.23 71 1003.7
20260905201939 30 193 4.8 6.4 0.00 0.00 0.23 69 1003.7
20260905201524 31 315 1.6 3.2 0.00 0.00 0.23 70 1003.3
20260905201053 30 205 1.6 3.2 0.00 0.00 0.23 70 1004.0
20260905200154 30 175 0.0 0.0 0.00 0.00 0.23 70 1004.0
20260905195724 30 239 8.0 9.7 0.00 0.00 0.23 72 1004.4
20260905195307 30 189 1.6 3.2 0.00 0.00 0.23 71 1004.0
20260905194404 30 275 1.6 3.2 0.00 0.00 0.23 71 1004.4
20260905193500 30 182 1.6 1.6 0.00 0.00 0.23 70 1004.4
20260905193043 30 186 1.6 1.6 0.00 0.00 0.23 69 1004.4
20260905192613 30 217 0.0 0.0 0.00 0.00 0.23 73 1004.4
20260905192142 29 285 3.2 3.2 0.00 0.00 0.23 77 1004.7
20260905191726 30 240 1.6 3.2 0.00 0.00 0.23 74 1004.7
20260905191255 29 154 1.6 3.2 0.00 0.00 0.23 74 1004.7
20260905190840 30 214 3.2 3.2 0.00 0.00 0.23 73 1004.4
20260905190408 30 241 1.6 3.2 0.00 0.00 0.23 75 1004.7
20260905185938 29 49 3.2 3.2 0.00 0.00 0.23 76 1005.0
20260905185522 29 263 4.8 6.4 0.00 0.00 0.23 78 1004.7
20260905185051 29 246 3.2 4.8 0.00 0.00 0.23 75 1004.7
20260905184637 28 6 3.2 3.2 0.00 0.00 0.23 76 1005.0
20260905184222 29 143 3.2 3.2 0.00 0.00 0.23 75 1004.7
20260905183735 30 342 3.2 3.2 0.00 0.00 0.23 74 1004.7
20260905183319 30 345 0.0 1.6 0.00 0.00 0.23 76 1005.0
20260905182900 28 140 1.6 1.6 0.00 0.00 0.23 79 1005.0
20260905182014 28 201 1.6 3.2 0.00 0.00 0.23 77 1005.0
20260905181554 28 201 1.6 1.6 0.00 0.00 0.23 77 1005.0
20260905181123 28 170 0.0 1.6 0.00 0.00 0.23 81 1005.0
20260905180706 28 131 0.0 0.0 0.00 0.00 0.23 79 1005.0
20260905175804 28 127 1.6 1.6 0.00 0.00 0.23 74 1005.0
20260905175349 28 185 1.6 1.6 0.00 0.00 0.23 76 1005.0
20260905174934 27 193 0.0 1.6 0.00 0.00 0.23 79 1005.4
20260905174050 27 127 1.6 1.6 0.00 0.00 0.23 80 1005.0
20260905173634 28 168 0.0 0.0 0.00 0.00 0.23 81 1005.4
20260905173204 27 154 0.0 1.6 0.00 0.00 0.23 81 1005.4
20260905172747 27 191 1.6 1.6 0.00 0.00 0.23 82 1005.7
20260905171900 26 144 1.6 1.6 0.00 0.00 0.23 85 1005.4
20260905171444 26 271 1.6 3.2 0.00 0.00 0.23 85 1005.7
20260905170542 26 253 3.2 3.2 0.00 0.00 0.23 86 1006.0
20260905170127 26 137 1.6 1.6 0.00 0.00 0.23 87 1005.7
20260905165711 26 115 0.0 0.0 0.00 0.00 0.23 87 1006.0
20260905165253 26 117 0.0 0.0 0.00 0.00 0.23 88 1006.0
20260905164836 26 196 3.2 3.2 0.00 0.00 0.23 87 1006.0
20260905164422 26 179 0.0 1.6 0.00 0.00 0.23 87 1006.0
20260905163949 26 146 0.0 0.0 0.00 0.00 0.23 85 1006.0
20260905163518 26 156 0.0 0.0 0.00 0.00 0.23 87 1006.0
20260905163048 26 145 0.0 0.0 0.00 0.00 0.23 88 1006.0
20260905162632 26 146 0.0 1.6 0.00 0.00 0.23 88 1005.7
20260905162200 26 144 0.0 0.0 0.00 0.00 0.23 90 1006.0
20260905161743 26 131 0.0 0.0 0.00 0.00 0.23 89 1006.0
20260905161327 25 168 0.0 1.6 0.00 0.00 0.23 90 1006.0
20260905160856 25 142 0.0 0.0 0.00 0.00 0.23 90 1006.0
20260905160442 25 153 0.0 0.0 0.00 0.00 0.23 91 1006.4
20260905160011 24 138 0.0 0.0 0.00 0.00 0.23 94 1006.4
20260905155541 24 354 3.2 3.2 0.00 0.00 0.23 93 1006.4
20260905154209 24 196 1.6 1.6 0.00 0.00 0.23 93 1006.0
20260905153736 24 230 1.6 3.2 0.00 0.00 0.23 93 1006.4
20260905153318 24 141 0.0 0.0 0.00 0.00 0.23 96 1006.0
20260905152901 24 134 0.0 1.6 0.00 0.00 0.23 95 1006.0
20260905152444 23 110 0.0 1.6 0.00 0.00 0.23 96 1005.4
20260905152027 23 139 0.0 0.0 0.00 0.00 0.23 98 1005.4
20260905151555 23 86 0.0 0.0 0.00 0.00 0.23 99 1005.4
20260905151140 23 115 0.0 0.0 0.00 0.00 0.23 98 1005.0
20260905150722 23 101 1.6 1.6 0.00 0.00 0.23 98 1005.4
20260905150305 23 323 3.2 3.2 0.00 0.00 0.23 97 1005.7
20260905145849 23 278 4.8 6.4 0.00 0.00 0.23 98 1006.0
20260905145432 23 305 3.2 3.2 0.00 0.00 0.23 99 1006.0
20260905145017 22 25 1.6 3.2 0.00 0.00 0.23 99 1005.7
20260905144559 22 88 1.6 1.6 0.00 0.00 0.23 99 1005.4
20260905144144 22 148 0.0 0.0 0.00 0.00 0.23 99 1005.7
20260905143726 22 132 0.0 0.0 0.00 0.00 0.23 99 1005.7
20260905143256 22 67 1.6 3.2 0.00 0.00 0.23 99 1005.7
20260905142823 22 129 0.0 1.6 0.00 0.00 0.23 99 1005.0
20260905142407 22 129 0.0 0.0 0.00 0.00 0.23 99 1005.0
20260905141948 22 99 1.6 1.6 0.00 0.00 0.23 99 1005.7
20260905141533 22 105 1.6 1.6 0.00 0.00 0.23 99 1005.7
20260905140631 23 132 0.0 0.0 0.00 0.00 0.23 99 1005.4
20260905140215 22 132 0.0 0.0 0.00 0.00 0.23 99 1005.7
20260905135756 22 131 0.0 0.0 0.00 0.00 0.23 99 1006.0
20260905135338 22 124 0.0 0.0 0.00 0.00 0.23 99 1006.4
20260905134451 22 144 0.0 0.0 0.00 0.00 0.23 99 1006.4
20260905134033 22 124 0.0 0.0 0.00 0.00 0.23 99 1006.4
20260905133600 22 112 0.0 0.0 0.00 0.00 0.23 99 1006.4
20260905133129 22 90 0.0 1.6 0.00 0.00 0.23 99 1006.4
20260905132711 22 134 0.0 0.0 0.00 0.00 0.23 99 1006.7
20260905131339 22 141 0.0 0.0 0.00 0.00 0.23 99 1007.1
20260905130922 22 134 0.0 0.0 0.00 0.00 0.23 99 1007.1
20260905130504 22 136 0.0 0.0 0.00 0.00 0.23 99 1007.1
20260905130032 22 143 0.0 0.0 0.00 0.00 0.23 99 1007.1
20260905125613 22 143 0.0 0.0 0.00 0.00 0.23 99 1007.1
20260905124254 21 126 0.0 0.0 0.00 0.00 0.23 99 1006.7
20260905123408 22 128 0.0 0.0 0.00 0.00 0.23 99 1006.7
20260905122951 22 88 0.0 1.6 0.00 0.00 0.23 99 1006.7
20260905122045 22 148 0.0 0.0 0.00 0.00 0.23 99 1006.7
20260905121631 22 134 0.0 0.0 0.00 0.00 0.23 99 1007.1
20260905121200 22 126 0.0 0.0 0.00 0.00 0.23 99 1006.7
20260905120258 22 71 1.6 1.6 0.00 0.00 0.23 99 1007.1
20260905114922 22 172 3.2 3.2 0.00 0.00 0.23 99 1007.1
20260905114452 22 185 4.8 4.8 0.00 0.00 0.00 99 1006.0
20260905114038 22 167 1.6 1.6 0.00 0.00 0.00 99 1005.7
20260905113622 22 144 0.0 0.0 0.00 0.00 0.00 99 1005.0
20260905113136 22 147 0.0 0.0 0.00 0.00 0.00 99 1005.0
20260905112706 22 119 0.0 0.0 0.00 0.00 0.00 99 1005.0
20260905112251 22 140 0.0 0.0 0.00 0.00 0.00 99 1005.0
20260905111821 22 136 0.0 0.0 0.00 0.00 0.00 99 1005.4
20260905111406 22 139 0.0 0.0 0.00 0.00 0.00 99 1005.7
20260905110949 22 168 1.6 1.6 0.00 0.00 0.00 99 1005.4
20260905110519 22 163 1.6 1.6 0.00 0.00 0.00 99 1005.4
20260905110105 22 198 4.8 4.8 0.00 0.00 0.00 99 1005.0
20260905105634 22 147 0.0 0.0 0.00 0.00 0.00 99 1005.4
20260905105147 22 255 12.9 17.7 0.00 0.00 0.00 99 1005.4
20260905104731 22 150 0.0 0.0 0.00 0.00 0.00 99 1004.4
20260905104315 22 139 0.0 0.0 0.00 0.00 0.00 99 1004.0
20260905103859 22 137 0.0 0.0 0.00 0.00 0.00 99 1004.0
20260905103427 22 135 0.0 0.0 0.00 0.00 0.00 99 1004.0
20260905103012 22 140 0.0 0.0 0.00 0.00 0.00 99 1004.0
20260905102542 22 140 0.0 0.0 0.00 0.00 0.00 99 1004.4
20260905102127 22 139 0.0 0.0 0.00 0.00 0.00 99 1004.0
20260905101657 22 140 0.0 0.0 0.00 0.00 0.00 99 1004.0
20260905100256 22 132 0.0 0.0 0.00 0.00 0.00 99 1004.4
20260905095838 22 120 0.0 0.0 0.00 0.00 0.00 99 1004.4
20260905095420 22 146 0.0 0.0 0.00 0.00 0.00 99 1004.7
20260905094101 22 143 0.0 0.0 0.00 0.00 0.00 99 1004.0
20260905093644 22 143 0.0 0.0 0.00 0.00 0.00 99 1004.0
20260905093229 22 144 0.0 0.0 0.00 0.00 0.00 99 1004.4
20260905092812 22 140 0.0 0.0 0.00 0.00 0.00 99 1004.0
20260905091455 22 138 0.0 0.0 0.00 0.00 0.00 99 1004.4
20260905091040 22 138 0.0 0.0 0.00 0.00 0.00 99 1004.4
20260905090626 22 138 0.0 0.0 0.00 0.00 0.00 99 1004.4
20260905090157 22 134 0.0 0.0 0.00 0.00 0.00 99 1004.0
20260905085744 22 135 0.0 0.0 0.00 0.00 0.00 99 1004.4
20260905085329 22 139 0.0 0.0 0.00 0.00 0.00 99 1004.4
20260905084859 22 137 0.0 0.0 0.00 0.00 0.00 99 1004.0
20260905084445 22 140 0.0 0.0 0.00 0.00 0.00 99 1004.4
20260905084028 22 144 0.0 0.0 0.00 0.00 0.00 99 1004.4
20260905083559 22 143 0.0 0.0 0.00 0.00 0.00 99 1004.4
20260905083144 22 140 0.0 0.0 0.00 0.00 0.00 99 1004.4
20260905082727 22 138 0.0 0.0 0.00 0.00 0.00 99 1004.0
20260905082311 22 138 0.0 0.0 0.00 0.00 0.00 99 1004.4
20260905081854 22 138 0.0 0.0 0.00 0.00 0.00 99 1004.4
20260905081438 22 138 0.0 0.0 0.00 0.00 0.00 99 1004.4
20260905081020 22 131 0.0 0.0 0.00 0.00 0.00 99 1004.0
20260905080131 22 131 0.0 0.0 0.00 0.00 0.00 99 1004.0
20260905075714 22 133 0.0 0.0 0.00 0.00 0.00 99 1004.0
20260905074825 22 133 0.0 0.0 0.00 0.00 0.00 99 1004.4
20260905073934 22 133 0.0 0.0 0.00 0.00 0.00 99 1004.0
20260905073032 22 132 0.0 0.0 0.00 0.00 0.00 99 1004.4
20260905072618 22 133 0.0 0.0 0.00 0.00 0.00 99 1004.4
20260905071301 22 135 0.0 0.0 0.00 0.00 0.00 99 1004.7
20260905070830 22 101 0.0 0.0 0.00 0.00 0.00 99 1004.7
20260905070414 22 144 0.0 0.0 0.00 0.00 0.00 99 1004.7
20260905070000 22 144 0.0 0.0 0.00 0.00 0.00 99 1004.7
20260905065544 22 144 0.0 0.0 0.00 0.00 0.00 99 1005.0
20260905065129 22 144 0.0 0.0 0.00 0.00 0.00 99 1005.0
20260905064713 22 144 0.0 0.0 0.00 0.00 0.00 99 1005.0
20260905064257 22 144 0.0 0.0 0.00 0.00 0.00 99 1005.4
20260905063841 22 144 0.0 0.0 0.00 0.00 0.00 99 1005.4
20260905063426 22 144 0.0 0.0 0.00 0.00 0.00 99 1005.4
20260905062509 22 141 0.0 0.0 0.00 0.00 0.00 99 1005.4
20260905062037 22 139 0.0 0.0 0.00 0.00 0.00 99 1005.4
20260905061621 22 138 0.0 0.0 0.00 0.00 0.00 99 1005.7
20260905061204 22 138 0.0 0.0 0.00 0.00 0.00 99 1005.7
20260905060746 22 142 0.0 0.0 0.00 0.00 0.00 99 1006.0
20260905060329 22 142 0.0 0.0 0.00 0.00 0.00 99 1005.7
20260905055912 22 142 0.0 0.0 0.00 0.00 0.00 99 1006.0
20260905055456 22 142 0.0 0.0 0.00 0.00 0.00 99 1006.0
20260905055041 22 142 0.0 0.0 0.00 0.00 0.00 99 1006.0
20260905054625 22 142 0.0 0.0 0.00 0.00 0.00 99 1006.0
20260905054210 22 141 0.0 0.0 0.00 0.00 0.00 99 1006.0
20260905053753 22 140 0.0 0.0 0.00 0.00 0.00 99 1006.0
20260905053323 22 140 0.0 0.0 0.00 0.00 0.00 99 1006.4
20260905052851 22 140 0.0 0.0 0.00 0.00 0.00 99 1006.4
20260905052436 22 138 0.0 0.0 0.00 0.00 0.00 99 1006.4
20260905052020 22 135 0.0 0.0 0.00 0.00 0.00 99 1006.4
20260905051549 23 134 0.0 0.0 0.00 0.00 0.00 99 1006.4
20260905051120 23 132 0.0 0.0 0.00 0.00 0.00 99 1006.0
20260905050219 23 130 0.0 0.0 0.00 0.00 0.00 99 1006.4
20260905045802 23 130 0.0 0.0 0.00 0.00 0.00 99 1006.0
20260905045346 23 130 0.0 0.0 0.00 0.00 0.00 99 1006.0
20260905044915 23 131 0.0 0.0 0.00 0.00 0.00 99 1006.0
20260905044444 23 131 0.0 0.0 0.00 0.00 0.00 99 1006.0
20260905044028 23 126 0.0 0.0 0.00 0.00 0.00 99 1006.4
20260905043614 23 131 0.0 0.0 0.00 0.00 0.00 99 1006.4
20260905043158 23 131 0.0 0.0 0.00 0.00 0.00 99 1006.0
20260905042743 23 131 0.0 0.0 0.00 0.00 0.00 99 1006.0
20260905042257 23 131 0.0 0.0 0.00 0.00 0.00 99 1006.0
20260905041840 23 131 0.0 0.0 0.00 0.00 0.00 99 1006.0
20260905041409 23 131 0.0 0.0 0.00 0.00 0.00 99 1006.0
20260905040950 23 139 0.0 0.0 0.00 0.00 0.00 99 1006.0
20260905040534 23 136 0.0 0.0 0.00 0.00 0.00 99 1006.0
20260905040103 23 133 0.0 0.0 0.00 0.00 0.00 99 1006.0
20260905035632 23 137 0.0 0.0 0.00 0.00 0.00 99 1006.4
20260905035216 23 137 0.0 0.0 0.00 0.00 0.00 99 1006.0
20260905034800 23 138 0.0 0.0 0.00 0.00 0.00 99 1006.0
20260905034344 23 136 0.0 0.0 0.00 0.00 0.00 99 1006.0
20260905033927 23 140 0.0 0.0 0.00 0.00 0.00 99 1006.0
20260905033510 23 133 0.0 0.0 0.00 0.00 0.00 99 1006.4
20260905033051 23 138 0.0 0.0 0.00 0.00 0.00 99 1006.4
20260905032635 23 138 0.0 0.0 0.00 0.00 0.00 99 1006.4
20260905032204 23 138 0.0 0.0 0.00 0.00 0.00 99 1006.0
20260905031730 23 140 0.0 0.0 0.00 0.00 0.00 99 1006.0
20260905031312 23 134 0.0 0.0 0.00 0.00 0.00 99 1006.0
20260905030842 23 135 0.0 0.0 0.00 0.00 0.00 99 1006.0
20260905025938 23 139 0.0 0.0 0.00 0.00 0.00 99 1006.0
20260905025522 23 139 0.0 0.0 0.00 0.00 0.00 99 1006.0
20260905025106 23 138 0.0 0.0 0.00 0.00 0.00 99 1006.0
20260905024650 23 135 0.0 0.0 0.00 0.00 0.00 99 1006.0
20260905023747 23 141 0.0 0.0 0.00 0.00 0.00 99 1006.0